Wind_Speed
35 36 38 40 41 42 43 44 46 47 48 49 51 52 54 55 56 57 58 59 59 60 60 60 61 61 61 61 61 61 61 61 61 61 60 59 59 58
37 38 39 40 41 42 43 45 46 47 49 50 51 53 54 54 55 55 56 56 57 57 57 58 58 59 59 59 58 56 56 56 56 56 56 56 56 55
37 38 39 40 41 42 43 44 46 47 48 49 50 51 52 52 53 53 54 54 54 54 54 54 55 55 55 54 52 52 51 51 51 52 53 53 54 54
38 38 39 40 41 42 42 43 44 45 46 47 47 48 49 49 49 49 49 49 49 48 47 47 46 46 46 46 45 45 44 45 45 46 47 48 49 50
37 38 38 39 39 39 40 41 41 42 42 42 42 42 42 42 42 42 42 41 40 39 38 37 37 36 36 37 38 38 39 40 41 41 41 42 41 42
36 36 36 37 37 37 38 38 39 39 38 38 37 36 35 35 34 34 34 34 33 33 32 32 31 30 30 31 32 33 34 35 36 36 36 36 36 36
34 34 34 34 34 34 35 35 35 35 34 33 32 31 30 29 29 29 29 29 29 29 29 28 28 28 28 28 29 29 30 31 31 31 30 30 30 30
31 31 31 31 32 32 32 32 32 31 30 29 28 27 27 27 26 26 26 25 26 25 25 25 24 25 25 25 25 25 26 26 25 25 25 25 25 25
29 29 29 29 29 29 28 28 27 27 26 26 25 25 25 24 24 24 24 23 23 23 23 23 22 22 21 21 22 22 22 22 23 23 23 23 23 23
27 26 26 26 25 25 25 24 24 23 23 23 23 23 22 22 21 21 21 22 21 21 20 20 19 19 19 20 20 21 21 22 22 23 22 22 22 22
24 23 23 23 22 22 21 21 21 21 21 21 20 20 20 20 19 19 19 20 20 19 18 18 18 19 19 19 20 20 21 21 22 22 22 21 21 21
21 20 20 19 19 19 19 19 19 19 19 19 18 18 18 18 17 18 18 18 18 17 17 17 17 18 18 19 19 20 20 20 20 21 21 21 21 21
18 18 17 17 17 17 17 18 18 18 17 17 17 17 17 16 16 17 17 17 17 16 16 16 16 17 17 18 19 19 19 20 20 21 22 22 22 22
15 16 16 16 16 16 16 16 17 16 16 16 16 16 16 15 16 16 16 15 15 14 14 15 16 16 17 18 19 19 20 20 21 21 22 22 22 22
14 14 14 14 15 15 15 16 16 16 15 15 15 15 15 15 14 14 14 14 13 13 14 14 15 16 17 18 19 20 21 21 22 22 22 22 22 22
12 12 13 13 14 14 15 15 15 14 14 14 14 14 14 14 13 13 13 12 12 12 13 14 14 16 17 18 20 20 21 22 22 22 23 22 23 23
11 12 12 12 13 14 14 15 14 13 13 13 13 13 13 13 12 12 11 11 11 11 12 13 14 15 17 18 20 21 22 22 23 23 23 23 23 22
11 11 12 12 13 13 13 13 13 13 13 13 12 12 12 11 11 10 10 10 10 11 11 12 13 15 17 18 20 21 22 22 22 23 24 24 24 24
10 11 12 12 13 12 12 13 13 12 12 12 11 11 11 10 9 9 9 10 10 10 11 12 13 15 16 18 19 20 21 21 22 23 24 24 25 25
10 11 12 12 12 12 12 12 12 12 11 10 10 10 10 9 8 8 9 9 9 10 11 12 13 14 16 17 18 19 21 22 22 23 24 25 25 25
10 11 11 12 12 11 11 11 11 11 10 10 9 9 8 8 7 8 8 9 9 10 11 12 13 14 15 16 18 19 21 22 23 24 25 26 27 27
10 11 11 11 11 11 11 11 10 10 10 9 8 8 7 7 7 7 8 9 9 10 11 12 13 14 15 17 18 19 21 22 23 25 25 26 26 27
10 10 11 11 11 11 11 10 10 9 9 8 8 7 7 7 7 7 8 9 10 11 12 13 14 15 16 17 19 20 21 22 23 24 25 25 26 26
Wind_Direction
286 286 286 286 286 286 286 286 287 287 287 286 286 286 286 285 285 284 284 283 281 280 280 280 279 279 279 280 279 279 279 278 278 277 277 276 275 274
287 288 288 288 287 287 288 289 289 288 288 288 288 287 287 286 285 285 285 284 283 283 282 282 282 282 282 282 282 281 281 281 280 279 278 278 278 277
289 289 290 290 290 290 290 290 289 289 289 289 289 288 288 288 287 287 287 287 287 287 287 286 285 284 284 284 284 285 285 285 285 285 285 284 282 281
291 291 291 291 291 291 291 291 291 292 293 293 292 291 291 290 290 290 290 291 292 292 293 292 290 289 288 288 289 290 291 291 292 291 289 288 287 286
292 292 292 292 292 292 292 293 294 295 295 296 296 296 296 295 296 295 296 296 297 299 299 299 298 297 295 294 294 293 293 293 294 293 293 293 292 290
294 293 293 292 292 292 294 295 296 296 297 299 300 301 302 303 304 305 304 305 305 306 306 305 305 304 303 301 300 300 299 300 300 299 299 298 297 295
293 293 293 294 294 295 296 297 298 299 301 302 304 306 307 308 309 311 311 311 311 311 311 311 310 309 309 309 308 307 308 308 307 306 305 304 303 301
294 295 295 296 297 298 299 299 300 302 304 305 307 308 310 311 312 314 315 316 316 317 316 315 314 314 315 316 316 316 316 316 316 315 314 313 311 309
296 297 298 299 300 302 303 304 305 307 307 308 309 311 313 316 317 319 320 321 321 321 320 319 319 320 322 323 324 324 324 324 324 323 322 321 319 318
299 300 301 302 303 305 306 307 308 310 311 312 314 316 318 320 322 323 325 325 325 325 326 327 327 328 329 329 330 332 332 331 332 331 329 328 327 325
301 301 303 305 306 308 310 312 314 315 316 317 319 320 321 323 326 329 330 330 331 332 333 334 335 335 336 337 338 338 338 338 338 338 337 336 335 333
301 303 305 308 310 312 314 316 319 320 321 323 324 325 326 328 331 333 334 335 338 340 341 341 342 343 344 345 346 346 346 346 347 347 347 346 343 340
303 306 309 311 314 316 319 321 323 324 326 328 330 331 332 334 337 338 339 340 343 345 347 349 351 353 353 353 354 354 353 352 352 352 352 351 350 349
306 310 313 316 318 321 323 325 327 329 330 332 333 335 337 338 340 341 343 345 348 351 353 355 357 359 360 1 1 1 360 358 357 356 357 357 358 358
309 313 316 319 322 324 326 328 330 331 333 334 336 337 339 340 341 343 346 349 353 357 359 1 2 4 5 5 5 5 4 3 3 3 2 3 4 6
314 317 320 323 326 328 329 331 333 334 334 336 337 338 339 342 343 345 348 352 356 360 4 6 7 7 7 7 8 7 7 7 8 9 10 10 12 16
320 323 326 328 330 331 332 334 336 337 337 337 338 339 340 342 345 348 351 354 358 3 5 7 8 9 9 11 11 11 12 13 14 16 18 21 22 24
325 328 329 330 331 333 335 337 338 338 338 338 339 341 343 344 348 352 355 358 3 8 9 10 11 12 12 13 14 16 17 20 22 24 26 28 30 31
331 332 333 334 334 335 336 337 339 340 340 341 342 344 347 350 353 357 360 3 8 13 15 16 17 16 16 17 19 21 24 27 30 31 32 34 36 37
336 336 337 337 337 337 338 339 340 341 343 344 347 349 352 356 0 4 7 11 15 19 20 22 22 22 22 23 26 29 32 34 35 37 38 39 40 41
340 341 342 343 343 342 341 342 344 345 346 348 350 353 358 4 10 15 19 22 26 28 29 29 29 29 31 34 36 38 40 41 43 43 44 44 43 43
346 348 350 351 350 349 347 347 348 350 352 354 357 2 9 15 22 27 32 34 36 37 37 38 39 41 42 44 45 46 47 48 48 48 47 46 45 45
355 355 356 356 356 355 354 354 354 356 359 3 8 16 23 29 34 37 40 42 43 44 45 46 49 51 52 52 52 52 51 49 48 47 46 45 44 44
Height
5789 5786 5784 5781 5779 5776 5773 5770 5767 5763 5760 5756 5752 5748 5744 5740 5736 5731 5727 5723 5719 5714 5710 5706 5701 5697 5693 5688 5684 5680 5676 5672 5669 5666 5663 5660 5657 5655
5779 5777 5774 5771 5768 5765 5762 5758 5755 5751 5747 5743 5739 5735 5730 5726 5721 5716 5712 5707 5702 5698 5693 5689 5685 5680 5675 5671 5667 5663 5659 5655 5652 5649 5646 5643 5640 5637
5769 5767 5764 5761 5757 5754 5750 5746 5743 5739 5734 5730 5725 5721 5716 5711 5707 5702 5697 5692 5687 5682 5677 5672 5668 5663 5659 5655 5651 5647 5643 5640 5636 5633 5630 5627 5624 5621
5759 5756 5753 5750 5746 5743 5739 5735 5731 5726 5722 5717 5712 5707 5703 5698 5693 5688 5683 5677 5672 5668 5663 5658 5654 5649 5645 5642 5638 5635 5631 5627 5624 5620 5617 5614 5610 5606
5748 5745 5742 5739 5735 5732 5728 5724 5719 5715 5710 5706 5701 5695 5690 5685 5680 5675 5670 5665 5660 5656 5651 5647 5642 5638 5634 5631 5628 5624 5621 5617 5613 5609 5604 5600 5597 5593
5738 5735 5732 5728 5725 5721 5717 5713 5709 5705 5700 5695 5691 5686 5681 5676 5671 5666 5661 5656 5651 5647 5642 5638 5634 5630 5627 5623 5620 5616 5611 5607 5603 5598 5594 5590 5586 5582
5728 5725 5722 5718 5714 5711 5707 5703 5699 5695 5691 5686 5682 5677 5673 5668 5664 5659 5654 5649 5644 5640 5636 5632 5628 5624 5620 5616 5612 5608 5603 5599 5594 5590 5586 5581 5577 5573
5719 5716 5712 5709 5706 5702 5698 5695 5691 5687 5683 5679 5675 5670 5666 5662 5657 5653 5648 5644 5639 5635 5631 5627 5623 5619 5614 5610 5606 5602 5597 5593 5588 5584 5579 5575 5570 5566
5710 5707 5704 5701 5697 5694 5690 5687 5683 5680 5676 5672 5668 5664 5660 5656 5652 5648 5643 5639 5635 5631 5627 5622 5618 5614 5610 5606 5602 5597 5593 5588 5584 5579 5575 5570 5565 5561
5703 5700 5697 5694 5690 5687 5684 5680 5677 5674 5670 5666 5663 5659 5655 5651 5647 5644 5639 5635 5631 5627 5623 5619 5615 5611 5607 5603 5598 5594 5590 5585 5580 5575 5570 5566 5561 5556
5696 5693 5690 5687 5684 5681 5678 5675 5672 5669 5665 5661 5658 5654 5651 5647 5644 5640 5636 5632 5628 5624 5620 5617 5613 5608 5604 5600 5596 5591 5587 5582 5577 5572 5567 5562 5558 5553
5690 5688 5685 5683 5680 5676 5674 5670 5667 5664 5661 5657 5654 5651 5647 5644 5640 5637 5633 5630 5626 5622 5618 5615 5611 5607 5603 5599 5594 5589 5585 5580 5575 5571 5565 5560 5555 5550
5686 5683 5681 5678 5675 5672 5670 5667 5663 5660 5657 5654 5651 5647 5644 5641 5638 5634 5631 5628 5624 5620 5617 5613 5610 5606 5602 5598 5593 5589 5584 5579 5574 5570 5564 5559 5553 5548
5681 5679 5677 5674 5672 5669 5666 5663 5660 5657 5654 5651 5648 5645 5642 5639 5636 5633 5629 5626 5622 5619 5616 5612 5609 5605 5601 5597 5593 5588 5584 5579 5574 5569 5563 5558 5552 5547
5677 5675 5673 5671 5668 5665 5663 5660 5657 5654 5651 5648 5645 5643 5640 5637 5634 5631 5628 5625 5622 5619 5615 5612 5609 5605 5602 5597 5593 5589 5584 5579 5574 5568 5563 5557 5552 5547
5674 5672 5670 5667 5665 5662 5660 5657 5654 5651 5649 5646 5643 5641 5638 5635 5633 5630 5627 5624 5621 5618 5615 5612 5609 5605 5602 5598 5593 5589 5584 5579 5574 5569 5563 5558 5552 5547
5671 5669 5667 5665 5662 5660 5657 5654 5652 5649 5647 5644 5642 5639 5636 5634 5631 5629 5626 5624 5621 5618 5615 5612 5609 5606 5602 5598 5594 5589 5585 5580 5575 5570 5565 5559 5554 5549
5668 5666 5664 5662 5660 5657 5655 5652 5650 5647 5645 5642 5640 5637 5635 5632 5630 5628 5625 5623 5621 5618 5615 5613 5610 5607 5603 5599 5595 5591 5586 5582 5577 5572 5567 5562 5557 5553
5666 5664 5662 5660 5657 5655 5653 5650 5648 5645 5643 5641 5638 5636 5634 5631 5629 5627 5625 5623 5620 5618 5616 5613 5610 5607 5604 5601 5597 5593 5589 5584 5580 5575 5570 5566 5561 5557
5664 5662 5660 5658 5655 5653 5651 5649 5646 5644 5641 5639 5637 5635 5633 5631 5629 5627 5625 5623 5621 5619 5616 5614 5611 5609 5606 5603 5599 5595 5591 5587 5583 5578 5574 5570 5565 5561
5663 5661 5658 5656 5654 5651 5649 5647 5645 5642 5640 5638 5636 5634 5632 5630 5628 5627 5625 5623 5621 5619 5617 5615 5613 5610 5607 5604 5601 5598 5594 5590 5587 5582 5578 5574 5570 5566
5662 5660 5657 5655 5652 5650 5648 5645 5643 5641 5639 5637 5635 5633 5631 5630 5628 5627 5625 5624 5622 5620 5618 5616 5614 5612 5610 5607 5604 5601 5598 5595 5591 5587 5583 5580 5576 5572
5661 5659 5656 5654 5652 5649 5647 5644 5642 5640 5638 5636 5634 5633 5631 5630 5629 5627 5626 5625 5623 5622 5620 5618 5616 5614 5612 5610 5607 5604 5601 5598 5595 5592 5588 5585 5581 5577